sat.trackr.live / text

‹ back to catalog

QIANFAN-185

NORAD 69403 · 2026-125C

PAYLOAD ACTIVE UNKNOWN

§ Identity

Operator
Country
PRC
Launch date
2026-06-05
Launch site
WSC
Launch vehicle
Mass (kg)
RCS (m²)

External: N2YO · Heavens-Above · Gunter

§ Orbital elements

Epoch: 2026-09-17T12:34:09.677568Z

Period
106.92 min
Inclination
88.9894°
Eccentricity
0.0009178
Mean motion
13.46850617 rev/d
Perigee alt
1,077.0 km
Apogee alt
1,090.7 km
Semi-major
7,462.0 km
B*
-3.1393e+0
RAAN
270.5744°
Arg perigee
115.9164°
Mean anomaly
244.2932°
Rev number
1,444

§ Raw data

QIANFAN-1851 69403U 26125C   26260.52372312 -.01777842  00000+0 -31393+1 0  99952 69403  88.9894 270.5744 0009178 115.9164 244.2932 13.46850617 14441

JSON: /api/v1/satellites/69403 · /tle

For live sub-satellite position, see the globe view (requires WebGL).

§ Visibility from observer

Set your observer location to see the next 7 days of passes ≥ 10°. The values pass through the URL so the page stays shareable.

No JS? Fill the form by hand. The geolocation button needs JavaScript.